Penn Yan, NY

3:54 AM EDT on September 28, 2016 (GMT -0400)
Penn Yan

Weather History for KPEO - October, 2012

Change the Weather History Date:

Tuesday, October 16, 2012

  Actual Average (KITH) Record (KITH)
Temperature  
Mean Temperature 46 °F -  
Max Temperature 55 °F 61 °F 82 °F (1947)
Min Temperature 36 °F 40 °F 25 °F (1944)
Degree Days  
Heating Degree Days 20    
Moisture  
Dew Point 34 °F    
Average Humidity 64    
Maximum Humidity 93    
Minimum Humidity 45    
Precipitation  
Precipitation 0.00 in - - ()
Sea Level Pressure  
Sea Level Pressure 29.88 in    
Wind  
Wind Speed 8 mph (WNW)    
Max Wind Speed 13 mph    
Max Gust Speed 22 mph    
Visibility 10 miles    
Events      
Averages and records for this station are not official NWS values.
T = Trace of Precipitation, MM = Missing Value Source: NWS Daily Summary

Daily Weather History Graph

Daily Weather History Graph

Search for Another Location

Airport or City:

Trip Planner

Search our weather history database for the weather conditions in past years. The results will help you decide how hot, cold, wet, or windy it might be!

Date:

Astronomy

Oct. 16, 2012 Rise Set
Actual Time 7:23 AM EDT 6:23 PM EDT
Civil Twilight 6:54 AM EDT 6:52 PM EDT
Nautical Twilight 6:21 AM EDT 7:24 PM EDT
Astronomical Twilight 5:49 AM EDT 7:57 PM EDT
Moon 8:46 AM EDT (10/16) 7:03 PM EDT (10/16)
Length of Visible Light 11h 57m
Length of Day
11h 00m
New Moon, 2% of the Moon is Illuminated
Oct 16
New Moon
Oct 21
First Quarter
Oct 29
Full
Nov 6
Last Quarter
Nov 13
New

Hourly Weather History & Observations

Time (EDT) Temp. Windchill Dew Point Humidity Pressure Visibility Wind Dir Wind Speed Gust Speed Precip Events Conditions
12:53 AM 46.9 °F - 35.1 °F 63% 29.80 in 10.0 mi West 9.2 mph 19.6 mph N/A   Overcast
1:53 AM 46.9 °F - 35.1 °F 63% 29.82 in 10.0 mi West 11.5 mph 19.6 mph N/A   Overcast
2:26 AM 46.4 °F 41.9 °F 33.8 °F 62% 29.82 in 10.0 mi WNW 9.2 mph 19.6 mph N/A   Overcast
2:53 AM 45.0 °F 38.9 °F 35.1 °F 68% 29.82 in 10.0 mi NW 12.7 mph 17.3 mph N/A   Overcast
3:53 AM 45.0 °F 41.2 °F 34.0 °F 65% 29.82 in 10.0 mi Variable 6.9 mph - N/A   Overcast
4:02 AM 44.6 °F 40.2 °F 33.8 °F 66% 29.82 in 10.0 mi WNW 8.1 mph 16.1 mph N/A   Overcast
4:53 AM 44.1 °F 39.5 °F 35.1 °F 71% 29.83 in 10.0 mi West 8.1 mph - N/A   Overcast
5:53 AM 44.1 °F 40.8 °F 35.1 °F 71% 29.86 in 10.0 mi Variable 5.8 mph - N/A   Overcast
6:53 AM 44.1 °F 39.5 °F 35.1 °F 71% 29.87 in 10.0 mi NW 8.1 mph - N/A   Overcast
8:38 AM 44.6 °F - 35.6 °F 71% 29.89 in 10.0 mi Calm Calm - N/A   Overcast
8:53 AM 45.0 °F 41.2 °F 36.0 °F 71% 29.91 in 10.0 mi WNW 6.9 mph - N/A   Overcast
9:20 AM 46.4 °F 43.5 °F 35.6 °F 66% 29.90 in 10.0 mi Variable 5.8 mph - N/A   Overcast
9:53 AM 46.9 °F - 35.1 °F 63% 29.91 in 10.0 mi West 8.1 mph 16.1 mph N/A   Scattered Clouds
10:53 AM 48.9 °F - 32.0 °F 52% 29.92 in 10.0 mi WNW 12.7 mph 21.9 mph N/A   Mostly Cloudy
11:53 AM 51.1 °F - 32.0 °F 48% 29.91 in 10.0 mi West 10.4 mph 20.7 mph N/A   Overcast
12:53 PM 51.1 °F - 34.0 °F 52% 29.91 in 10.0 mi West 9.2 mph - N/A   Overcast
1:53 PM 53.1 °F - 33.1 °F 47% 29.89 in 10.0 mi Variable 6.9 mph - N/A   Mostly Cloudy
2:53 PM 53.1 °F - 33.1 °F 47% 29.88 in 10.0 mi WNW 8.1 mph - N/A   Clear
3:53 PM 54.0 °F - 33.1 °F 45% 29.88 in 10.0 mi Variable 3.5 mph - N/A   Clear
4:53 PM 54.0 °F - 34.0 °F 47% 29.87 in 10.0 mi NW 8.1 mph - N/A   Clear
5:53 PM 52.0 °F - 33.1 °F 49% 29.88 in 10.0 mi West 4.6 mph - N/A   Clear
6:53 PM 46.9 °F - 34.0 °F 61% 29.88 in 10.0 mi West 3.5 mph - N/A   Clear
7:53 PM 44.1 °F - 35.1 °F 71% 29.90 in 10.0 mi Calm Calm - N/A   Clear
8:53 PM 37.9 °F - 33.1 °F 83% 29.91 in 10.0 mi Calm Calm - N/A   Clear
9:53 PM 41.0 °F 38.0 °F 36.0 °F 82% 29.93 in 10.0 mi South 4.6 mph - N/A   Clear
10:53 PM 37.0 °F - 33.1 °F 86% 29.94 in 10.0 mi Calm Calm - N/A   Clear
11:53 PM 36.0 °F - 34.0 °F 93% 29.93 in 10.0 mi Calm Calm - N/A   Clear